TimeCST,TemperatureF,Dew PointF,Humidity,Sea Level PressureIn,VisibilityMPH,Wind Direction,Wind SpeedMPH,Gust SpeedMPH,PrecipitationIn,Events,Conditions,WindDirDegrees,DateUTC
12:15 AM,32.0,32.0,100,29.73,5.0,ENE,6.9,-,N/A,Rain,Light Rain,70,2013-02-21 06:15:00
12:35 AM,32.0,32.0,100,29.72,5.0,East,9.2,-,0.01,Rain,Light Rain,100,2013-02-21 06:35:00
12:55 AM,32.0,32.0,100,29.71,10.0,East,15.0,-,0.01,Rain,Rain,100,2013-02-21 06:55:00
1:15 AM,32.0,32.0,100,29.70,2.0,East,13.8,23.0,0.02,Snow,Light Snow,100,2013-02-21 07:15:00
1:35 AM,32.0,32.0,100,29.72,2.5,East,9.2,20.7,0.07,Snow,Light Snow,100,2013-02-21 07:35:00
1:55 AM,32.0,32.0,100,29.72,1.0,East,8.1,-,0.10,Snow,Snow,80,2013-02-21 07:55:00
2:15 AM,32.0,32.0,100,29.72,1.0,ESE,8.1,-,0.03,Snow,Snow,110,2013-02-21 08:15:00
2:35 AM,32.0,32.0,100,29.70,0.8,ESE,11.5,-,0.06,Snow,Snow,120,2013-02-21 08:35:00
3:15 AM,32.0,32.0,100,29.69,2.0,East,6.9,-,0.02,Snow,Light Snow,90,2013-02-21 09:15:00
3:35 AM,32.0,32.0,100,29.68,1.5,East,9.2,-,0.03,Snow,Light Snow,90,2013-02-21 09:35:00
3:55 AM,32.0,32.0,100,29.66,5.0,East,9.2,-,0.03,Snow,Light Snow,90,2013-02-21 09:55:00
4:15 AM,32.0,32.0,100,29.61,7.0,East,16.1,25.3,N/A,Snow,Light Snow,100,2013-02-21 10:15:00
4:35 AM,32.0,32.0,100,29.66,10.0,ESE,9.2,-,N/A,,Overcast,110,2013-02-21 10:35:00
4:55 AM,32.0,30.2,93,29.63,4.0,East,13.8,20.7,N/A,Snow,Light Snow,100,2013-02-21 10:55:00
5:15 AM,32.0,30.2,93,29.63,7.0,East,13.8,-,N/A,Snow,Light Snow,100,2013-02-21 11:15:00
5:35 AM,32.0,30.2,93,29.62,10.0,East,17.3,20.7,N/A,,Overcast,100,2013-02-21 11:35:00
5:55 AM,30.2,30.2,100,29.59,10.0,East,13.8,-,N/A,,Overcast,90,2013-02-21 11:55:00
6:15 AM,30.2,30.2,100,29.58,10.0,East,17.3,24.2,N/A,,Overcast,100,2013-02-21 12:15:00
6:35 AM,30.2,30.2,100,29.55,10.0,East,13.8,26.5,N/A,,Overcast,90,2013-02-21 12:35:00
6:55 AM,32.0,30.2,93,29.57,10.0,NNE,4.6,-,N/A,,Overcast,20,2013-02-21 12:55:00
7:15 AM,30.2,30.2,100,29.56,10.0,ENE,9.2,-,N/A,,Overcast,70,2013-02-21 13:15:00
7:35 AM,30.2,30.2,100,29.56,10.0,NE,4.6,-,N/A,,Overcast,50,2013-02-21 13:35:00
8:15 AM,32.0,30.2,93,29.64,4.0,South,10.4,-,N/A,Snow,Light Snow,180,2013-02-21 14:15:00
8:35 AM,32.0,32.0,100,29.63,0.5,South,4.6,-,0.01,Snow,Snow,180,2013-02-21 14:35:00
9:15 AM,32.0,32.0,100,29.65,0.8,West,3.5,-,0.01,Snow,Light Snow,280,2013-02-21 15:15:00
9:35 AM,32.0,32.0,100,29.64,0.5,NW,4.6,-,0.03,Snow,Snow,310,2013-02-21 15:35:00
9:55 AM,32.0,32.0,100,29.65,0.5,NNW,4.6,-,0.05,Snow,Snow,330,2013-02-21 15:55:00
10:15 AM,32.0,32.0,100,29.64,1.2,Calm,Calm,-,N/A,Snow,Light Snow,0,2013-02-21 16:15:00
10:35 AM,32.0,32.0,100,29.64,2.0,NNE,3.5,-,N/A,Snow,Light Snow,30,2013-02-21 16:35:00
10:55 AM,32.0,32.0,100,29.65,4.0,NNE,3.5,-,N/A,,Overcast,20,2013-02-21 16:55:00
11:15 AM,32.0,32.0,100,29.65,5.0,North,3.5,-,N/A,,Overcast,10,2013-02-21 17:15:00
11:35 AM,32.0,32.0,100,29.66,5.0,North,4.6,-,N/A,,Overcast,360,2013-02-21 17:35:00
11:55 AM,32.0,32.0,100,29.67,7.0,North,6.9,-,N/A,,Overcast,360,2013-02-21 17:55:00
12:35 PM,28.4,26.6,93,29.69,1.0,NNE,13.8,-,N/A,Snow,Light Snow,20,2013-02-21 18:35:00
12:55 PM,28.4,26.6,93,29.71,4.0,North,16.1,-,N/A,Snow,Light Snow,360,2013-02-21 18:55:00
1:35 PM,28.4,24.8,86,29.73,7.0,North,15.0,25.3,N/A,Snow,Light Snow,360,2013-02-21 19:35:00
1:55 PM,26.6,23.0,86,29.73,2.5,North,16.1,21.9,N/A,Snow,Light Snow,350,2013-02-21 19:55:00
2:15 PM,26.6,21.2,80,29.73,10.0,North,18.4,-,N/A,,Overcast,350,2013-02-21 20:15:00
2:35 PM,28.4,21.2,74,29.74,10.0,NNW,17.3,20.7,N/A,,Mostly Cloudy,340,2013-02-21 20:35:00
2:55 PM,28.4,21.2,74,29.76,10.0,NNW,16.1,-,N/A,,Mostly Cloudy,330,2013-02-21 20:55:00
3:15 PM,26.6,21.2,80,29.77,10.0,NNW,16.1,-,N/A,,Scattered Clouds,330,2013-02-21 21:15:00
3:55 PM,26.6,21.2,80,29.80,10.0,NNW,16.1,-,N/A,,Overcast,340,2013-02-21 21:55:00
4:15 PM,26.6,21.2,80,29.80,10.0,NNW,17.3,21.9,N/A,,Overcast,330,2013-02-21 22:15:00
4:35 PM,26.6,21.2,80,29.81,10.0,NNW,13.8,-,N/A,,Overcast,340,2013-02-21 22:35:00
4:55 PM,26.6,21.2,80,29.82,10.0,NNW,13.8,23.0,N/A,,Overcast,340,2013-02-21 22:55:00
5:15 PM,26.6,19.4,74,29.82,10.0,NNW,13.8,18.4,N/A,,Mostly Cloudy,340,2013-02-21 23:15:00
5:35 PM,26.6,19.4,74,29.83,10.0,NNW,13.8,-,N/A,,Scattered Clouds,330,2013-02-21 23:35:00
5:55 PM,24.8,19.4,80,29.85,10.0,NNW,10.4,16.1,N/A,,Scattered Clouds,330,2013-02-21 23:55:00
6:15 PM,24.8,19.4,80,29.87,10.0,NNW,9.2,-,N/A,,Scattered Clouds,330,2013-02-22 00:15:00
6:35 PM,23.0,19.4,86,29.86,10.0,NNW,8.1,-,N/A,,Scattered Clouds,340,2013-02-22 00:35:00
6:55 PM,21.2,17.6,86,29.87,10.0,North,4.6,-,N/A,,Clear,350,2013-02-22 00:55:00
7:15 PM,21.2,17.6,86,29.88,10.0,NNW,4.6,-,N/A,,Clear,340,2013-02-22 01:15:00
7:35 PM,19.4,17.6,93,29.88,10.0,NNW,6.9,-,N/A,,Clear,330,2013-02-22 01:35:00
7:55 PM,21.2,17.6,86,29.90,10.0,NW,8.1,-,N/A,,Clear,310,2013-02-22 01:55:00
8:15 PM,17.6,15.8,93,29.91,10.0,West,5.8,-,N/A,,Clear,270,2013-02-22 02:15:00
8:35 PM,17.6,14.0,86,29.92,10.0,WSW,4.6,-,N/A,,Clear,240,2013-02-22 02:35:00
8:55 PM,15.8,14.0,93,29.92,10.0,WNW,6.9,-,N/A,,Clear,290,2013-02-22 02:55:00
9:15 PM,15.8,14.0,93,29.94,10.0,WSW,5.8,-,N/A,,Clear,250,2013-02-22 03:15:00
9:35 PM,15.8,14.0,93,29.93,10.0,West,5.8,-,N/A,,Clear,270,2013-02-22 03:35:00
9:55 PM,14.0,12.2,93,29.93,10.0,West,6.9,-,N/A,,Clear,270,2013-02-22 03:55:00
10:15 PM,15.8,14.0,93,29.94,10.0,WNW,9.2,-,N/A,,Clear,300,2013-02-22 04:15:00
10:35 PM,17.6,14.0,86,29.96,10.0,West,4.6,-,N/A,,Clear,280,2013-02-22 04:35:00
10:55 PM,14.0,12.2,93,29.97,10.0,SSW,6.9,-,N/A,,Clear,210,2013-02-22 04:55:00
11:15 PM,14.0,12.2,93,29.96,10.0,NW,5.8,-,N/A,,Mostly Cloudy,320,2013-02-22 05:15:00
11:35 PM,19.4,15.8,86,29.97,10.0,NW,4.6,-,N/A,,Overcast,310,2013-02-22 05:35:00
11:55 PM,19.4,15.8,86,29.97,10.0,WSW,3.5,-,N/A,,Overcast,240,2013-02-22 05:55:00